JES5LB SABE-SASJ

Flight info

Callsign JES5LB
Flight time 1h 52m
Altitude 32000
Route BIVAM4B BIVAM UW8 ERE UT672 ASODO ASODO2U
Aircraft A21N/M-SDE2E3FGHIRWXY/LB1

Departure

Time 2026-05-09 15:03
Airport Aeroparque Jorge Newbery (SABE)

Arrival

Time 2026-05-09 16:56
Airport Gobernador Horacio Guzman International Airport (SASJ)
Time Latitude Longitude Altitude Speed Heading
2026-05-09 14:46 -34.55701 -58.41446 31 ft 0 kts 18°
2026-05-09 14:57 -34.55707 -58.41448 31 ft 4 kts 18°
2026-05-09 14:57 -34.55733 -58.41457 31 ft 4 kts 14°
2026-05-09 14:57 -34.55759 -58.41465 31 ft 4 kts 14°
2026-05-09 14:57 -34.55785 -58.41474 31 ft 4 kts 14°
2026-05-09 14:58 -34.55811 -58.41481 31 ft 4 kts 14°
2026-05-09 14:58 -34.55825 -58.41486 31 ft 0 kts 14°
2026-05-09 14:59 -34.55821 -58.41481 31 ft 3 kts 47°
2026-05-09 15:00 -34.55841 -58.41455 31 ft 7 kts 154°
2026-05-09 15:00 -34.55883 -58.41402 31 ft 11 kts 117°
2026-05-09 15:00 -34.55926 -58.41303 31 ft 15 kts 121°
2026-05-09 15:00 -34.55997 -58.41185 31 ft 19 kts 127°
2026-05-09 15:01 -34.56163 -58.40905 31 ft 21 kts 115°
2026-05-09 15:01 -34.56224 -58.40743 31 ft 22 kts 115°
2026-05-09 15:01 -34.56307 -58.40590 31 ft 19 kts 130°
2026-05-09 15:02 -34.56398 -58.40488 31 ft 13 kts 137°
2026-05-09 15:02 -34.56460 -58.40420 31 ft 12 kts 137°
2026-05-09 15:02 -34.56527 -58.40387 31 ft 11 kts 202°
2026-05-09 15:02 -34.56565 -58.40438 31 ft 8 kts 300°
2026-05-09 15:03 -34.56511 -58.40526 31 ft 32 kts 303°
2026-05-09 15:03 -34.56259 -58.40979 31 ft 96 kts 303°
2026-05-09 15:03 -34.55766 -58.41862 63 ft 149 kts 301°
2026-05-09 15:03 -34.55205 -58.42861 745 ft 143 kts 293°
2026-05-09 15:04 -34.54593 -58.43844 1418 ft 156 kts 316°
2026-05-09 15:04 -34.53473 -58.44075 1699 ft 179 kts 10°
2026-05-09 15:06 -34.44594 -58.37249 4640 ft 257 kts 32°
2026-05-09 15:06 -34.43006 -58.36062 4974 ft 278 kts 28°
2026-05-09 15:06 -34.41119 -58.35427 5464 ft 286 kts 357°
2026-05-09 15:06 -34.39201 -58.35883 6207 ft 280 kts 329°
2026-05-09 15:07 -34.37667 -58.37242 6965 ft 271 kts 307°
2026-05-09 15:07 -34.36463 -58.38983 7743 ft 270 kts 303°
2026-05-09 15:07 -34.35283 -58.40763 8519 ft 272 kts 303°
2026-05-09 15:07 -34.34093 -58.42520 9300 ft 274 kts 303°
2026-05-09 15:08 -34.32869 -58.44303 10078 ft 276 kts 303°
2026-05-09 15:08 -34.30253 -58.48065 10723 ft 310 kts 304°
2026-05-09 15:08 -34.28813 -58.50113 10952 ft 328 kts 305°
2026-05-09 15:09 -34.27307 -58.52247 11421 ft 338 kts 306°
2026-05-09 15:10 -34.16051 -58.68075 15526 ft 372 kts 306°
2026-05-09 15:11 -34.14352 -58.70463 16074 ft 377 kts 306°
2026-05-09 15:11 -34.12630 -58.72882 16611 ft 382 kts 307°
2026-05-09 15:11 -34.10891 -58.75322 17159 ft 386 kts 307°
2026-05-09 15:11 -34.09125 -58.77796 17695 ft 391 kts 307°
2026-05-09 15:12 -34.07361 -58.80267 18221 ft 396 kts 307°
2026-05-09 15:12 -34.05550 -58.82800 18696 ft 401 kts 307°
2026-05-09 15:12 -34.03718 -58.85364 19175 ft 405 kts 307°
2026-05-09 15:12 -34.01873 -58.87941 19652 ft 408 kts 307°
2026-05-09 15:13 -34.00017 -58.90532 20125 ft 411 kts 307°
2026-05-09 15:13 -33.98126 -58.93137 20593 ft 415 kts 310°
2026-05-09 15:13 -33.95942 -58.95445 21042 ft 422 kts 322°
2026-05-09 15:13 -33.93454 -58.97357 21498 ft 427 kts 327°
2026-05-09 15:14 -33.90933 -58.99168 21931 ft 430 kts 327°
2026-05-09 15:14 -33.88353 -59.01015 22386 ft 433 kts 327°
2026-05-09 15:14 -33.85762 -59.02889 22825 ft 436 kts 327°
2026-05-09 15:14 -33.83156 -59.04783 23250 ft 439 kts 327°
2026-05-09 15:15 -33.80529 -59.06694 23693 ft 442 kts 327°
2026-05-09 15:15 -33.78786 -59.07963 23935 ft 444 kts 327°
2026-05-09 15:15 -33.75240 -59.10545 24413 ft 447 kts 327°
2026-05-09 15:15 -33.72576 -59.12484 24786 ft 449 kts 327°
2026-05-09 15:16 -33.69934 -59.14404 25147 ft 451 kts 327°
2026-05-09 15:16 -33.67247 -59.16357 25530 ft 452 kts 327°
2026-05-09 15:16 -33.64548 -59.18315 25896 ft 454 kts 327°
2026-05-09 15:16 -33.61842 -59.20278 26250 ft 456 kts 327°
2026-05-09 15:17 -33.59122 -59.22249 26608 ft 457 kts 327°
2026-05-09 15:17 -33.56393 -59.24227 26958 ft 459 kts 327°
2026-05-09 15:17 -33.53648 -59.26215 27276 ft 462 kts 327°
2026-05-09 15:17 -33.50898 -59.28206 27614 ft 464 kts 327°
2026-05-09 15:18 -33.48131 -59.30207 27960 ft 465 kts 327°
2026-05-09 15:18 -33.45392 -59.32183 28285 ft 466 kts 327°
2026-05-09 15:18 -33.42610 -59.34188 28636 ft 467 kts 327°
2026-05-09 15:18 -33.39820 -59.36200 28876 ft 471 kts 327°
2026-05-09 15:19 -33.37008 -59.38227 29179 ft 472 kts 327°
2026-05-09 15:19 -33.34198 -59.40250 29657 ft 470 kts 327°
2026-05-09 15:19 -33.31400 -59.42265 29993 ft 470 kts 327°
2026-05-09 15:19 -33.28598 -59.44279 30346 ft 469 kts 327°
2026-05-09 15:20 -33.25837 -59.46259 30672 ft 468 kts 327°
2026-05-09 15:20 -33.20266 -59.50258 31322 ft 466 kts 327°
2026-05-09 15:20 -33.17495 -59.52243 31739 ft 462 kts 327°
2026-05-09 15:21 -33.14756 -59.54207 32115 ft 459 kts 327°
2026-05-09 15:21 -33.12026 -59.56168 32223 ft 456 kts 327°
2026-05-09 15:21 -33.09308 -59.58115 32224 ft 457 kts 327°
2026-05-09 15:22 -33.03852 -59.62014 32207 ft 459 kts 327°
2026-05-09 15:22 -32.98421 -59.65889 32209 ft 458 kts 327°
2026-05-09 15:23 -32.92970 -59.69772 32216 ft 456 kts 327°
2026-05-09 15:23 -32.87535 -59.73644 32226 ft 455 kts 327°
2026-05-09 15:24 -32.82080 -59.77519 32221 ft 458 kts 327°
2026-05-09 15:24 -32.76653 -59.81368 32230 ft 459 kts 327°
2026-05-09 15:25 -32.71173 -59.85246 32245 ft 457 kts 327°
2026-05-09 15:25 -32.65718 -59.89103 32234 ft 456 kts 327°
2026-05-09 15:26 -32.57492 -59.94911 32257 ft 459 kts 327°
2026-05-09 15:26 -32.52043 -59.98754 32256 ft 457 kts 327°
2026-05-09 15:27 -32.46560 -60.02623 32257 ft 460 kts 327°
2026-05-09 15:27 -32.41078 -60.06477 32262 ft 457 kts 327°
2026-05-09 15:28 -32.35599 -60.10325 32267 ft 459 kts 327°
2026-05-09 15:28 -32.30142 -60.14139 32272 ft 457 kts 327°
2026-05-09 15:29 -32.24665 -60.17974 32264 ft 458 kts 327°
2026-05-09 15:29 -32.19184 -60.21811 32279 ft 458 kts 327°
2026-05-09 15:30 -32.13703 -60.25640 32285 ft 458 kts 327°
2026-05-09 15:30 -32.08243 -60.29447 32288 ft 459 kts 327°
2026-05-09 15:31 -32.02750 -60.33273 32272 ft 458 kts 327°
2026-05-09 15:31 -31.97261 -60.37094 32273 ft 458 kts 327°
2026-05-09 15:32 -31.91762 -60.40916 32267 ft 460 kts 327°
2026-05-09 15:32 -31.86279 -60.44719 32261 ft 460 kts 327°
2026-05-09 15:33 -31.80775 -60.48560 32251 ft 459 kts 325°
2026-05-09 15:33 -31.75406 -60.52629 32260 ft 459 kts 324°
2026-05-09 15:34 -31.70096 -60.56682 32263 ft 458 kts 324°
2026-05-09 15:34 -31.64745 -60.60756 32274 ft 459 kts 324°
2026-05-09 15:35 -31.59390 -60.64830 32306 ft 458 kts 324°
2026-05-09 15:35 -31.54041 -60.68892 32313 ft 457 kts 324°
2026-05-09 15:36 -31.48705 -60.72934 32311 ft 457 kts 324°
2026-05-09 15:36 -31.43390 -60.76961 32309 ft 459 kts 324°
2026-05-09 15:37 -31.38044 -60.81011 32316 ft 457 kts 324°
2026-05-09 15:37 -31.32703 -60.85038 32313 ft 457 kts 324°
2026-05-09 15:38 -31.27354 -60.89072 32324 ft 458 kts 324°
2026-05-09 15:38 -31.22036 -60.93077 32324 ft 458 kts 324°
2026-05-09 15:39 -31.16717 -60.97074 32323 ft 453 kts 324°
2026-05-09 15:39 -31.11411 -61.01062 32328 ft 454 kts 324°
2026-05-09 15:40 -31.06097 -61.05047 32321 ft 455 kts 324°
2026-05-09 15:40 -31.00786 -61.09023 32317 ft 457 kts 324°
2026-05-09 15:41 -30.95464 -61.12995 32333 ft 453 kts 324°
2026-05-09 15:41 -30.90147 -61.16956 32337 ft 453 kts 324°
2026-05-09 15:42 -30.85731 -61.20237 32339 ft 453 kts 324°
2026-05-09 15:42 -30.79556 -61.24830 32335 ft 453 kts 323°
2026-05-09 15:43 -30.74293 -61.28737 32345 ft 448 kts 323°
2026-05-09 15:43 -30.69932 -61.31969 32349 ft 448 kts 323°
2026-05-09 15:44 -30.64672 -61.35869 32346 ft 450 kts 324°
2026-05-09 15:44 -30.58522 -61.40415 32348 ft 451 kts 324°
2026-05-09 15:45 -30.54081 -61.43694 32350 ft 451 kts 324°
2026-05-09 15:45 -30.48819 -61.47571 32357 ft 451 kts 324°
2026-05-09 15:46 -30.43520 -61.51481 32353 ft 451 kts 324°
2026-05-09 15:46 -30.37358 -61.56011 32347 ft 450 kts 323°
2026-05-09 15:47 -30.32954 -61.59246 32359 ft 447 kts 323°
2026-05-09 15:47 -30.27739 -61.63072 32370 ft 447 kts 323°
2026-05-09 15:48 -30.22491 -61.66919 32370 ft 447 kts 323°
2026-05-09 15:48 -30.17233 -61.70767 32376 ft 447 kts 323°
2026-05-09 15:49 -30.12006 -61.74589 32364 ft 443 kts 323°
2026-05-09 15:49 -30.06831 -61.78364 32374 ft 443 kts 323°
2026-05-09 15:50 -30.01616 -61.82169 32375 ft 443 kts 323°
2026-05-09 15:50 -29.96401 -61.85963 32378 ft 444 kts 323°
2026-05-09 15:51 -29.91205 -61.89739 32369 ft 438 kts 323°
2026-05-09 15:51 -29.85976 -61.93396 32373 ft 442 kts 327°
2026-05-09 15:52 -29.77881 -61.98406 32377 ft 443 kts 327°
2026-05-09 15:53 -29.72452 -62.01749 32361 ft 442 kts 327°
2026-05-09 15:53 -29.67044 -62.05074 32380 ft 440 kts 327°
2026-05-09 15:54 -29.61682 -62.08376 32382 ft 440 kts 327°
2026-05-09 15:54 -29.56284 -62.11688 32380 ft 440 kts 327°
2026-05-09 15:55 -29.50880 -62.15005 32378 ft 440 kts 327°
2026-05-09 15:55 -29.45508 -62.18298 32378 ft 437 kts 327°
2026-05-09 15:56 -29.40180 -62.21562 32386 ft 437 kts 327°
2026-05-09 15:56 -29.34794 -62.24851 32387 ft 440 kts 327°
2026-05-09 15:57 -29.29376 -62.28156 32392 ft 442 kts 327°
2026-05-09 15:57 -29.23969 -62.31448 32378 ft 438 kts 327°
2026-05-09 15:58 -29.18623 -62.34711 32391 ft 438 kts 327°
2026-05-09 15:58 -29.13242 -62.37986 32393 ft 438 kts 327°
2026-05-09 15:59 -29.07849 -62.41258 32392 ft 438 kts 327°
2026-05-09 15:59 -29.02478 -62.44519 32382 ft 434 kts 327°
2026-05-09 16:00 -28.97182 -62.47725 32393 ft 434 kts 326°
2026-05-09 16:00 -28.91856 -62.50954 32396 ft 434 kts 326°
2026-05-09 16:01 -28.86519 -62.54184 32397 ft 435 kts 327°
2026-05-09 16:01 -28.81154 -62.57419 32381 ft 436 kts 326°
2026-05-09 16:02 -28.75814 -62.60614 32397 ft 433 kts 326°
2026-05-09 16:02 -28.67861 -62.65372 32402 ft 433 kts 326°
2026-05-09 16:03 -28.62530 -62.68555 32403 ft 433 kts 326°
2026-05-09 16:03 -28.57208 -62.71732 32379 ft 430 kts 324°
2026-05-09 16:04 -28.51984 -62.74849 32395 ft 426 kts 324°
2026-05-09 16:04 -28.46731 -62.77981 32408 ft 427 kts 324°
2026-05-09 16:05 -28.41469 -62.81105 32406 ft 427 kts 324°
2026-05-09 16:05 -28.36204 -62.84235 32410 ft 429 kts 324°
2026-05-09 16:06 -28.30895 -62.87375 32409 ft 431 kts 324°
2026-05-09 16:06 -28.25615 -62.90496 32410 ft 431 kts 324°
2026-05-09 16:07 -28.20301 -62.93639 32410 ft 431 kts 324°
2026-05-09 16:07 -28.14989 -62.96781 32410 ft 431 kts 324°
2026-05-09 16:08 -28.09726 -62.99879 32399 ft 427 kts 323°
2026-05-09 16:08 -28.04454 -63.02986 32414 ft 428 kts 323°
2026-05-09 16:09 -27.99175 -63.06095 32419 ft 427 kts 323°
2026-05-09 16:09 -27.96533 -63.07649 32572 ft 428 kts 323°
2026-05-09 16:09 -27.93890 -63.09206 32816 ft 428 kts 323°
2026-05-09 16:10 -27.91282 -63.10740 33060 ft 428 kts 323°
2026-05-09 16:10 -27.88637 -63.12296 33214 ft 429 kts 323°
2026-05-09 16:10 -27.85993 -63.13849 33483 ft 428 kts 322°
2026-05-09 16:10 -27.83343 -63.15405 33615 ft 430 kts 322°
2026-05-09 16:11 -27.80682 -63.16966 33757 ft 432 kts 322°
2026-05-09 16:11 -27.78013 -63.18533 33930 ft 433 kts 322°
2026-05-09 16:11 -27.75338 -63.20099 34116 ft 434 kts 323°
2026-05-09 16:11 -27.72659 -63.21670 34277 ft 434 kts 323°
2026-05-09 16:12 -27.69970 -63.23244 34427 ft 436 kts 323°
2026-05-09 16:12 -27.67310 -63.24802 34457 ft 437 kts 323°
2026-05-09 16:12 -27.61921 -63.27950 34400 ft 434 kts 322°
2026-05-09 16:13 -27.56567 -63.31075 34419 ft 433 kts 322°
2026-05-09 16:13 -27.51221 -63.34194 34425 ft 433 kts 322°
2026-05-09 16:14 -27.45908 -63.37289 34428 ft 433 kts 322°
2026-05-09 16:14 -27.40558 -63.40406 34354 ft 433 kts 321°
2026-05-09 16:15 -27.35238 -63.43497 34406 ft 428 kts 321°
2026-05-09 16:15 -27.29919 -63.46592 34426 ft 433 kts 321°
2026-05-09 16:16 -27.24596 -63.49677 34428 ft 434 kts 321°
2026-05-09 16:16 -27.19233 -63.52785 34430 ft 434 kts 321°
2026-05-09 16:17 -27.13876 -63.55888 34391 ft 431 kts 321°
2026-05-09 16:17 -27.08549 -63.58967 34422 ft 431 kts 321°
2026-05-09 16:18 -27.03254 -63.62031 34434 ft 431 kts 321°
2026-05-09 16:18 -26.97916 -63.65105 34434 ft 431 kts 321°
2026-05-09 16:19 -26.92568 -63.68164 34334 ft 431 kts 321°
2026-05-09 16:19 -26.87259 -63.71199 34401 ft 426 kts 322°
2026-05-09 16:20 -26.81984 -63.74220 34430 ft 426 kts 322°
2026-05-09 16:20 -26.76702 -63.77246 34433 ft 433 kts 322°
2026-05-09 16:21 -26.71330 -63.80308 34430 ft 434 kts 322°
2026-05-09 16:21 -26.65952 -63.83367 34369 ft 433 kts 323°
2026-05-09 16:22 -26.60630 -63.86382 34416 ft 427 kts 323°
2026-05-09 16:22 -26.55358 -63.89373 34431 ft 428 kts 323°
2026-05-09 16:23 -26.50051 -63.92379 34431 ft 428 kts 323°
2026-05-09 16:23 -26.44739 -63.95383 34432 ft 428 kts 323°
2026-05-09 16:24 -26.39441 -63.98376 34395 ft 425 kts 323°
2026-05-09 16:24 -26.34202 -64.01335 34430 ft 425 kts 323°
2026-05-09 16:25 -26.28918 -64.04315 34434 ft 426 kts 323°
2026-05-09 16:25 -26.23603 -64.07314 34426 ft 432 kts 323°
2026-05-09 16:26 -26.18214 -64.10348 34375 ft 434 kts 323°
2026-05-09 16:26 -26.12843 -64.13367 34421 ft 432 kts 323°
2026-05-09 16:27 -26.07807 -64.16786 34435 ft 424 kts 316°
2026-05-09 16:27 -26.02979 -64.20539 34434 ft 424 kts 316°
2026-05-09 16:28 -25.98135 -64.24288 34436 ft 424 kts 316°
2026-05-09 16:28 -25.93283 -64.28028 34433 ft 425 kts 316°
2026-05-09 16:29 -25.88455 -64.31745 34425 ft 425 kts 316°
2026-05-09 16:29 -25.83597 -64.35478 34424 ft 425 kts 316°
2026-05-09 16:30 -25.78718 -64.39227 34423 ft 429 kts 316°
2026-05-09 16:30 -25.73794 -64.43004 34426 ft 429 kts 316°
2026-05-09 16:31 -25.68924 -64.46732 34391 ft 428 kts 315°
2026-05-09 16:31 -25.63989 -64.50494 34420 ft 432 kts 315°
2026-05-09 16:32 -25.59872 -64.53645 34417 ft 433 kts 315°
2026-05-09 16:32 -25.54087 -64.58070 34416 ft 432 kts 315°
2026-05-09 16:33 -25.51627 -64.59948 33824 ft 429 kts 315°
2026-05-09 16:33 -25.49161 -64.61832 33055 ft 430 kts 315°
2026-05-09 16:33 -25.46738 -64.63683 32452 ft 428 kts 315°
2026-05-09 16:33 -25.44295 -64.65547 31833 ft 425 kts 316°
2026-05-09 16:34 -25.41878 -64.67387 31333 ft 421 kts 316°
2026-05-09 16:34 -25.39384 -64.69101 30809 ft 422 kts 320°
2026-05-09 16:34 -25.36850 -64.70718 30258 ft 420 kts 320°
2026-05-09 16:34 -25.34317 -64.72320 29614 ft 418 kts 320°
2026-05-09 16:35 -25.31804 -64.73910 29018 ft 415 kts 320°
2026-05-09 16:35 -25.29312 -64.75490 28450 ft 411 kts 320°
2026-05-09 16:35 -25.26838 -64.77059 27898 ft 409 kts 320°
2026-05-09 16:35 -25.24416 -64.78594 27346 ft 406 kts 320°
2026-05-09 16:36 -25.21970 -64.80145 26782 ft 405 kts 320°
2026-05-09 16:36 -25.14699 -64.84750 25112 ft 398 kts 320°
2026-05-09 16:37 -25.12305 -64.86267 24560 ft 396 kts 320°
2026-05-09 16:37 -25.09929 -64.87768 24014 ft 392 kts 320°
2026-05-09 16:37 -25.07577 -64.89256 23389 ft 388 kts 320°
2026-05-09 16:37 -25.05247 -64.90727 22793 ft 383 kts 320°
2026-05-09 16:38 -25.02978 -64.92160 22241 ft 379 kts 320°
2026-05-09 16:38 -25.00700 -64.93598 21691 ft 376 kts 321°
2026-05-09 16:38 -24.98445 -64.95021 21154 ft 371 kts 321°
2026-05-09 16:38 -24.96219 -64.96427 20661 ft 367 kts 321°
2026-05-09 16:39 -24.94021 -64.97815 20161 ft 362 kts 321°
2026-05-09 16:39 -24.91848 -64.99185 19700 ft 358 kts 320°
2026-05-09 16:39 -24.89697 -65.00542 19277 ft 356 kts 321°
2026-05-09 16:39 -24.87551 -65.01896 18846 ft 355 kts 321°
2026-05-09 16:40 -24.85437 -65.03229 18395 ft 355 kts 321°
2026-05-09 16:40 -24.83296 -65.04579 17925 ft 354 kts 321°
2026-05-09 16:42 -24.68543 -65.13850 14914 ft 340 kts 326°
2026-05-09 16:42 -24.66505 -65.15128 14498 ft 334 kts 327°
2026-05-09 16:42 -24.64499 -65.16385 14085 ft 329 kts 327°
2026-05-09 16:42 -24.62530 -65.17619 13638 ft 323 kts 328°
2026-05-09 16:43 -24.60595 -65.18831 13241 ft 318 kts 328°
2026-05-09 16:43 -24.58677 -65.20033 12859 ft 318 kts 328°
2026-05-09 16:43 -24.56755 -65.21238 12467 ft 318 kts 328°
2026-05-09 16:43 -24.54832 -65.22441 12067 ft 319 kts 328°
2026-05-09 16:44 -24.52934 -65.23629 11661 ft 319 kts 329°
2026-05-09 16:44 -24.51002 -65.24837 11276 ft 319 kts 329°
2026-05-09 16:44 -24.49094 -65.26029 10980 ft 311 kts 329°
2026-05-09 16:44 -24.47247 -65.27184 10730 ft 301 kts 329°
2026-05-09 16:45 -24.45455 -65.28301 10491 ft 291 kts 329°
2026-05-09 16:45 -24.43725 -65.29383 10338 ft 280 kts 330°
2026-05-09 16:45 -24.42084 -65.30408 10361 ft 263 kts 330°
2026-05-09 16:45 -24.40507 -65.31395 10414 ft 261 kts 330°
2026-05-09 16:46 -24.38954 -65.32367 10369 ft 256 kts 331°
2026-05-09 16:46 -24.37463 -65.33299 10298 ft 240 kts 330°
2026-05-09 16:46 -24.35989 -65.34142 9866 ft 239 kts 339°
2026-05-09 16:46 -24.34410 -65.34706 9369 ft 239 kts 345°
2026-05-09 16:47 -24.32802 -65.35200 8890 ft 240 kts 345°
2026-05-09 16:47 -24.31193 -65.35696 8425 ft 241 kts 345°
2026-05-09 16:47 -24.29564 -65.36204 8157 ft 244 kts 345°
2026-05-09 16:47 -24.27936 -65.36717 8116 ft 244 kts 345°
2026-05-09 16:48 -24.26334 -65.37225 8115 ft 243 kts 345°
2026-05-09 16:48 -24.24705 -65.37741 8120 ft 242 kts 345°
2026-05-09 16:48 -24.23067 -65.38153 8117 ft 241 kts 356°
2026-05-09 16:48 -24.21413 -65.38022 8110 ft 240 kts 21°
2026-05-09 16:49 -24.19997 -65.37118 8109 ft 236 kts 52°
2026-05-09 16:49 -24.19283 -65.35549 8166 ft 232 kts 79°
2026-05-09 16:49 -24.19012 -65.33845 8165 ft 218 kts 82°
2026-05-09 16:50 -24.18604 -65.30939 8144 ft 172 kts 89°
2026-05-09 16:50 -24.18823 -65.29656 8056 ft 184 kts 117°
2026-05-09 16:50 -24.19493 -65.28408 7781 ft 195 kts 123°
2026-05-09 16:50 -24.20184 -65.27142 7444 ft 194 kts 122°
2026-05-09 16:51 -24.20865 -65.25865 7102 ft 193 kts 122°
2026-05-09 16:51 -24.21533 -65.24595 6772 ft 191 kts 122°
2026-05-09 16:51 -24.22190 -65.23343 6721 ft 189 kts 124°
2026-05-09 16:51 -24.22964 -65.22188 6591 ft 187 kts 131°
2026-05-09 16:52 -24.23802 -65.21099 6270 ft 188 kts 132°
2026-05-09 16:52 -24.24635 -65.20032 5987 ft 183 kts 132°
2026-05-09 16:52 -24.25447 -65.18972 5881 ft 181 kts 131°
2026-05-09 16:52 -24.26300 -65.17947 5726 ft 181 kts 140°
2026-05-09 16:53 -24.27349 -65.17233 5437 ft 176 kts 153°
2026-05-09 16:53 -24.28434 -65.16583 5383 ft 180 kts 152°
2026-05-09 16:53 -24.29521 -65.15910 5255 ft 178 kts 152°
2026-05-09 16:53 -24.30585 -65.15247 4975 ft 175 kts 152°
2026-05-09 16:54 -24.31635 -65.14591 4691 ft 173 kts 152°
2026-05-09 16:54 -24.32626 -65.13969 4464 ft 155 kts 152°
2026-05-09 16:54 -24.33504 -65.13426 4203 ft 141 kts 152°
2026-05-09 16:54 -24.34346 -65.12902 3977 ft 139 kts 151°
2026-05-09 16:55 -24.35190 -65.12370 3746 ft 142 kts 151°
2026-05-09 16:55 -24.36046 -65.11839 3557 ft 141 kts 152°
2026-05-09 16:55 -24.36894 -65.11297 3398 ft 141 kts 152°
2026-05-09 16:55 -24.37732 -65.10751 3156 ft 138 kts 152°
2026-05-09 16:56 -24.38553 -65.10237 3003 ft 126 kts 151°
2026-05-09 16:56 -24.39059 -65.09918 3006 ft 42 kts 150°
2026-05-09 16:56 -24.39120 -65.09846 3005 ft 10 kts 23°
2026-05-09 16:56 -24.39049 -65.09852 3005 ft 11 kts 357°
2026-05-09 16:57 -24.38971 -65.09855 3004 ft 12 kts
2026-05-09 16:57 -24.38910 -65.09792 3003 ft 13 kts 61°
2026-05-09 16:57 -24.38862 -65.09700 3003 ft 15 kts 60°
2026-05-09 16:57 -24.38808 -65.09598 3003 ft 16 kts 60°
2026-05-09 16:58 -24.38762 -65.09511 3003 ft 10 kts 60°
2026-05-09 16:58 -24.38725 -65.09470 3003 ft 8 kts
2026-05-09 16:58 -24.38674 -65.09497 3003 ft 7 kts 329°
2026-05-09 16:58 -24.38636 -65.09521 3003 ft 5 kts 330°
2026-05-09 16:59 -24.38616 -65.09528 3003 ft 3 kts
2026-05-09 16:59 -24.38601 -65.09504 3003 ft 5 kts 60°
2026-05-09 16:59 -24.38595 -65.09492 3003 ft 0 kts 59°
2026-05-09 16:59 -24.38594 -65.09491 3003 ft 0 kts 59°